Wind_Speed
0 2 2 5 10 12 13 11 11 6 5 12 13 22 23 22 16 15 11 15 12 4 2 2 4 6 7 7 7 7 6 3 2 5 5 6 6 8 9 9 9 8 8 10 12 14 16 17 16
1 3 10 13 17 17 18 11 9 8 8 16 17 20 24 16 11 12 13 13 5 4 3 4 5 6 7 6 5 5 4 4 5 6 8 9 11 13 12 12 12 12 11 13 13 16 18 19 19
2 5 8 17 16 13 15 15 6 3 13 18 27 24 20 7 8 4 13 11 9 6 5 7 6 5 6 6 6 6 6 8 8 10 11 12 13 14 15 14 14 14 14 15 15 17 18 21 23
3 6 8 20 17 16 11 9 7 6 17 22 24 28 20 10 10 3 6 15 12 9 9 9 9 10 10 10 9 9 9 9 10 11 13 14 16 17 18 16 16 15 16 17 19 20 19 21 24
3 5 13 19 18 19 17 14 6 9 20 26 20 20 19 14 5 5 6 14 15 12 13 13 13 13 13 13 12 13 13 13 14 14 15 16 17 19 19 18 18 18 18 19 18 19 20 23 25
5 7 12 21 22 21 10 4 5 14 23 27 28 28 18 8 6 7 9 13 15 13 15 17 17 17 18 17 16 17 17 16 17 18 18 19 19 19 17 17 18 19 20 20 19 19 21 22 24
7 6 13 26 23 18 12 5 14 21 25 31 15 23 18 9 5 10 17 18 17 18 19 20 21 20 19 19 19 19 20 20 20 21 21 19 20 21 20 19 20 21 21 22 23 22 22 24 24
5 7 19 23 23 22 7 8 16 17 11 14 17 18 17 15 13 19 22 20 18 19 20 20 19 20 20 20 21 21 21 24 26 25 24 22 21 22 23 23 24 23 23 26 27 27 27 27 27
7 10 21 24 23 19 11 16 19 17 11 14 20 19 19 20 13 20 21 21 22 22 20 20 21 23 22 23 23 25 26 27 29 29 28 26 26 25 24 25 25 24 26 28 30 30 30 29 32
10 12 23 23 23 18 17 14 18 12 9 15 21 24 22 22 19 17 21 23 26 27 24 24 24 25 26 26 27 27 28 30 30 30 29 28 29 29 27 26 27 27 29 30 30 29 28 29 31
11 16 21 22 24 21 20 17 14 19 25 20 21 26 26 19 17 18 21 25 27 27 28 29 28 29 28 30 31 31 28 31 32 31 30 31 33 33 32 29 30 30 31 31 31 31 30 32 32
13 18 21 21 24 22 17 14 18 19 21 27 31 28 23 18 15 19 22 24 29 30 31 30 28 28 25 25 26 29 31 32 33 32 35 37 37 37 37 36 35 34 34 34 34 33 34 34 34
14 18 19 18 18 20 22 18 16 20 28 33 29 30 24 16 18 17 20 23 25 28 30 30 29 27 28 28 29 30 32 32 33 38 40 41 41 41 42 41 40 40 37 36 36 37 39 41 40
15 14 17 18 17 21 21 19 20 20 30 36 35 31 27 20 20 19 21 22 23 25 27 29 32 32 31 32 33 36 35 36 40 39 40 41 40 42 42 44 41 42 39 41 42 43 45 46 45
18 16 20 21 21 20 23 19 21 23 28 35 34 31 26 24 23 23 22 24 27 27 29 30 32 33 36 37 37 39 40 39 40 41 42 42 42 43 46 48 49 49 48 47 46 48 49 49 49
20 19 21 23 24 25 22 16 24 26 28 34 34 30 30 26 22 21 21 26 29 30 29 32 33 36 38 39 41 39 39 40 41 43 44 45 46 47 49 50 51 52 52 53 51 51 51 52 53
25 23 20 23 23 24 27 21 24 24 29 30 31 30 29 23 22 20 21 28 27 28 31 32 32 33 36 38 39 40 42 43 44 46 48 48 49 50 52 54 54 54 55 55 54 53 54 57 57
28 24 20 19 23 27 27 26 26 27 32 31 27 29 28 23 22 21 20 24 25 28 31 31 32 33 35 38 41 42 44 46 47 50 51 52 52 52 52 53 55 58 62 64 68 66 65 63 64
26 30 25 24 26 29 28 22 22 26 30 27 32 29 31 26 22 22 25 25 29 29 31 31 31 32 35 37 38 40 44 46 49 51 53 54 55 58 59 61 63 66 69 71 73 75 74 74 73
24 26 26 22 26 33 33 31 24 29 30 33 37 36 31 31 30 27 28 27 29 30 31 35 38 40 42 44 44 46 48 51 54 57 60 62 65 66 68 70 72 74 77 77 77 77 77 79 75
24 29 28 30 25 27 33 37 28 32 36 39 41 37 36 31 30 32 31 30 25 32 37 41 43 47 49 50 50 52 55 56 56 59 61 62 65 68 72 75 76 78 80 81 81 79 79 80 76
29 29 32 30 30 29 29 42 31 33 40 41 41 40 40 38 39 34 26 33 34 35 35 41 45 49 51 53 55 57 58 59 61 64 66 68 72 75 78 81 83 85 86 87 87 89 83 77 75
30 28 25 31 31 36 21 40 42 34 39 40 38 37 35 36 31 33 36 37 39 41 45 48 49 51 54 55 56 59 61 64 67 69 72 76 80 84 86 89 92 94 97 96 97 96 96 88 84
30 33 32 28 30 37 35 39 40 32 34 36 34 30 32 28 34 36 38 40 43 47 48 52 56 58 60 61 63 66 69 71 75 78 80 83 88 92 96 99 101 102 102 103 106 103 90 86 84
32 35 39 39 36 35 31 39 39 37 33 35 36 37 33 38 40 40 40 44 50 50 51 55 59 60 62 65 68 72 76 79 81 83 86 89 94 101 105 106 107 110 113 113 107 99 89 92 100
31 34 41 47 47 41 36 41 37 38 36 38 39 39 40 43 42 40 47 51 51 52 58 62 64 64 68 71 75 78 81 84 87 91 95 100 103 106 109 112 113 109 101 87 74 69 68 84 100
35 37 41 47 48 49 49 41 34 34 35 35 36 37 40 44 48 49 50 50 52 56 59 63 65 67 71 74 77 80 83 88 92 95 98 101 102 101 99 92 77 55 47 42 42 47 52 59 84
37 40 43 45 53 55 50 46 49 43 39 38 39 40 43 47 49 52 55 57 55 55 62 66 66 71 74 77 81 85 88 92 93 93 90 85 78 72 61 48 39 39 42 41 45 52 48 51 50
43 42 45 49 51 56 60 56 50 48 44 49 46 43 47 51 52 56 56 55 54 60 65 68 71 73 76 81 84 86 86 86 84 77 71 63 60 47 34 29 36 37 35 39 44 43 41 36 39
44 47 48 48 53 58 55 63 54 50 46 48 51 53 53 54 57 56 54 55 60 64 66 69 73 77 79 82 83 80 79 70 67 62 56 51 38 33 30 36 30 26 27 28 31 29 30 28 28
Wind_Direction
304 155 121 129 131 139 160 188 194 191 160 254 283 268 266 262 267 268 290 252 254 221 224 167 190 196 200 179 180 177 172 203 252 292 295 287 294 278 278 290 304 314 330 340 344 350 352 352 353
340 109 124 144 155 173 179 225 231 243 235 261 284 277 254 261 266 264 251 260 274 226 202 203 199 201 205 211 214 228 232 234 262 273 281 285 286 289 293 297 304 311 321 331 338 341 343 346 347
280 121 145 150 185 199 197 198 202 303 271 268 296 291 263 258 139 268 245 270 277 246 227 211 210 218 228 229 240 245 259 269 274 273 272 277 284 288 287 290 298 309 316 319 326 331 339 343 346
234 132 166 156 186 205 209 241 203 264 287 280 276 294 282 252 213 200 248 251 247 242 227 222 218 217 226 235 240 252 255 264 276 282 287 290 292 292 292 293 296 303 307 313 319 326 333 334 335
228 177 166 175 195 222 226 228 262 282 284 294 287 284 272 270 223 211 236 238 238 238 241 235 232 236 244 256 265 271 267 270 276 280 283 283 282 283 289 290 293 300 305 309 314 318 319 323 325
232 175 170 176 197 231 268 317 300 283 288 288 282 274 267 268 259 212 227 242 246 248 242 241 241 244 249 256 262 267 271 272 279 286 289 290 286 282 280 282 287 293 295 299 302 306 306 309 316
228 203 182 190 220 238 264 339 295 281 279 289 263 257 268 253 221 253 239 235 246 248 245 244 246 251 257 264 267 268 272 275 278 282 283 284 288 286 280 275 278 284 290 290 291 292 298 300 306
235 202 195 215 241 246 252 275 274 278 273 262 255 256 265 261 240 231 244 242 253 263 270 275 279 275 273 274 272 275 279 283 283 285 281 278 282 286 284 280 281 285 288 287 286 288 290 294 297
237 213 216 233 244 249 266 240 252 261 255 252 251 250 262 264 242 234 245 249 262 264 268 277 279 277 277 274 276 279 280 281 283 284 283 281 280 281 284 283 280 280 278 281 286 288 285 286 291
250 217 242 247 255 266 295 261 251 255 255 268 260 265 272 272 271 249 254 269 268 269 272 275 277 280 281 281 276 276 278 281 281 281 281 280 281 282 279 277 276 274 276 281 284 284 287 289 291
264 240 252 254 257 267 270 278 268 260 262 266 266 270 266 280 295 281 266 268 272 271 265 267 272 273 273 276 279 277 272 276 274 277 277 277 279 280 276 274 275 275 277 282 285 287 289 287 288
271 253 261 260 268 283 273 263 275 272 268 268 268 272 273 272 265 263 273 277 278 278 278 275 271 272 274 273 269 270 274 274 273 273 274 276 276 277 275 272 273 276 278 279 282 284 286 287 289
283 270 277 277 286 295 294 284 273 281 286 274 262 267 267 273 271 273 270 269 274 277 277 275 276 277 273 268 260 263 261 266 271 277 277 275 275 275 274 274 275 277 277 278 280 283 284 285 289
269 274 273 278 278 274 273 263 263 269 257 262 262 260 261 269 268 275 275 277 274 272 273 275 278 279 276 277 276 274 272 271 266 271 275 275 277 277 276 276 276 277 278 279 279 281 281 282 284
278 259 256 251 253 259 267 279 264 246 248 257 262 267 268 263 254 255 262 269 267 269 271 276 280 280 283 282 281 278 278 277 277 279 280 278 277 276 275 276 279 281 280 280 280 280 281 283 285
280 272 268 266 264 264 259 258 263 265 260 257 264 263 264 261 254 258 269 257 257 261 267 271 275 278 280 283 285 284 281 281 282 281 279 278 279 279 278 278 278 280 282 284 283 281 282 284 281
281 279 275 272 276 268 269 251 254 255 258 265 269 275 275 274 265 261 256 246 256 260 259 260 266 272 277 279 279 280 281 281 279 277 277 277 278 279 280 283 283 283 281 280 277 277 277 277 277
287 285 284 276 274 260 260 256 260 276 267 274 274 276 275 274 276 272 254 254 256 261 264 267 269 271 271 271 273 275 275 274 274 276 277 280 281 282 281 280 280 281 282 282 283 282 279 277 277
283 287 280 262 267 262 258 269 281 280 286 283 285 281 288 293 280 262 271 269 267 273 279 283 282 278 277 275 274 275 279 281 282 283 283 282 280 280 280 279 279 279 279 279 279 280 280 279 279
276 267 273 264 262 274 265 265 282 286 283 286 280 281 279 283 285 284 276 274 276 277 280 286 283 281 281 281 281 280 280 279 279 280 282 283 284 283 282 282 280 279 278 278 278 277 277 278 277
309 277 275 281 272 276 281 279 273 273 276 275 275 279 284 285 279 279 278 275 276 281 284 284 279 279 281 281 280 280 279 279 279 277 276 275 277 278 279 278 277 278 280 280 281 282 282 282 280
303 303 280 279 280 269 263 277 266 266 262 265 274 280 282 283 284 287 277 285 285 286 283 279 278 280 283 282 282 279 280 279 279 279 279 282 283 283 283 284 283 284 284 285 284 282 283 277 274
307 310 301 280 282 280 276 269 273 262 269 274 276 277 276 275 266 276 285 289 288 287 285 284 285 287 285 284 285 286 285 283 282 284 285 287 287 287 288 291 292 294 295 295 296 293 289 282 272
305 302 299 297 295 288 288 280 278 277 274 274 271 277 275 254 273 278 283 283 283 286 285 288 291 289 290 290 290 290 290 289 289 289 288 289 290 291 291 293 297 296 295 293 290 288 279 267 263
298 297 296 295 299 304 308 283 279 283 278 272 274 280 270 274 282 281 281 281 282 283 286 288 288 290 293 293 295 296 294 292 291 290 290 290 290 293 297 297 296 295 293 292 287 280 270 252 246
290 297 297 299 303 302 306 302 290 279 281 279 280 278 279 281 279 278 282 282 284 285 288 290 291 295 296 296 294 294 293 293 292 292 293 296 299 301 301 300 299 295 291 289 285 278 266 254 250
291 291 294 298 298 300 309 308 297 290 285 284 282 279 277 276 277 279 282 283 284 289 290 288 290 293 293 293 293 296 297 298 299 300 302 304 307 307 302 296 294 297 300 302 304 298 283 267 252
286 289 291 295 298 301 303 305 312 308 303 293 285 282 279 279 282 284 285 288 291 289 286 289 296 294 296 299 300 301 303 303 305 309 313 311 306 299 297 296 299 298 300 296 300 304 299 278 273
285 290 291 293 296 298 303 301 306 308 299 299 292 286 286 283 285 286 289 291 292 289 291 296 296 298 301 302 303 306 309 312 314 313 312 305 301 296 292 309 300 304 307 307 303 304 309 281 273
279 281 284 287 293 294 301 296 311 302 291 279 289 285 288 286 287 291 296 293 290 294 298 297 301 303 304 305 307 311 313 313 313 312 307 304 297 289 293 299 305 315 324 332 338 325 316 303 269
Height
5877 5878 5879 5880 5884 5882 5880 5880 5880 5883 5886 5886 5887 5886 5884 5886 5889 5892 5888 5888 5886 5885 5884 5883 5884 5885 5886 5886 5886 5886 5886 5887 5887 5887 5887 5887 5886 5886 5885 5885 5884 5883 5883 5882 5880 5879 5877 5876 5875
5876 5877 5877 5879 5880 5877 5878 5877 5882 5883 5885 5882 5882 5881 5881 5886 5887 5887 5886 5884 5884 5884 5883 5883 5884 5885 5886 5887 5887 5887 5887 5886 5886 5887 5887 5887 5887 5886 5885 5884 5884 5883 5882 5880 5879 5877 5876 5874 5874
5875 5875 5877 5877 5877 5877 5877 5877 5878 5882 5883 5883 5877 5878 5881 5884 5886 5884 5882 5881 5882 5882 5882 5883 5883 5884 5885 5886 5886 5887 5887 5887 5887 5886 5886 5886 5885 5884 5883 5882 5882 5881 5880 5879 5877 5876 5874 5873 5872
5873 5875 5877 5876 5875 5873 5875 5875 5877 5879 5880 5879 5877 5874 5878 5880 5881 5881 5881 5879 5880 5880 5881 5882 5882 5882 5883 5883 5883 5884 5884 5885 5884 5885 5884 5883 5882 5881 5880 5880 5880 5879 5878 5877 5876 5875 5873 5872 5871
5872 5873 5874 5873 5873 5872 5873 5871 5873 5876 5876 5876 5874 5874 5876 5876 5879 5880 5880 5878 5878 5879 5880 5880 5881 5881 5881 5882 5883 5883 5883 5882 5882 5882 5881 5880 5879 5878 5878 5879 5878 5877 5876 5875 5874 5873 5872 5870 5869
5872 5872 5873 5874 5872 5868 5871 5870 5870 5875 5873 5873 5871 5870 5874 5875 5877 5879 5878 5876 5876 5876 5877 5878 5879 5879 5879 5879 5880 5880 5879 5879 5879 5879 5878 5877 5876 5875 5874 5875 5874 5873 5872 5872 5871 5870 5869 5868 5866
5870 5871 5872 5871 5869 5870 5869 5868 5870 5872 5872 5867 5870 5868 5871 5873 5873 5874 5875 5875 5874 5874 5875 5875 5875 5875 5876 5876 5876 5876 5876 5875 5875 5875 5875 5874 5873 5872 5871 5870 5869 5869 5868 5867 5867 5867 5867 5865 5864
5868 5870 5870 5867 5868 5867 5866 5867 5868 5868 5870 5868 5864 5866 5868 5868 5868 5868 5870 5872 5872 5872 5872 5873 5873 5874 5873 5873 5872 5872 5871 5871 5871 5871 5870 5869 5868 5868 5867 5865 5865 5865 5864 5863 5863 5863 5863 5862 5860
5867 5868 5866 5865 5865 5865 5864 5863 5863 5865 5867 5868 5861 5862 5863 5863 5866 5866 5868 5870 5870 5869 5871 5870 5869 5868 5869 5868 5868 5867 5866 5866 5865 5865 5865 5864 5863 5862 5861 5860 5859 5859 5858 5857 5857 5857 5856 5856 5855
5865 5864 5862 5863 5863 5863 5862 5861 5859 5861 5863 5863 5860 5858 5860 5861 5865 5868 5867 5867 5865 5865 5867 5867 5866 5865 5865 5864 5862 5861 5861 5860 5859 5859 5859 5858 5857 5856 5855 5854 5853 5853 5852 5852 5851 5850 5852 5852 5850
5860 5860 5858 5859 5859 5861 5860 5859 5858 5856 5856 5858 5856 5855 5854 5860 5861 5862 5863 5863 5863 5864 5864 5863 5862 5860 5861 5858 5858 5857 5856 5855 5853 5852 5852 5851 5850 5849 5848 5847 5846 5846 5845 5845 5845 5844 5845 5844 5843
5859 5856 5855 5856 5856 5856 5856 5854 5854 5854 5854 5852 5849 5849 5852 5854 5855 5855 5856 5856 5856 5855 5856 5857 5857 5854 5855 5853 5852 5851 5849 5848 5846 5846 5845 5844 5843 5843 5842 5841 5839 5840 5838 5838 5837 5836 5835 5835 5836
5857 5853 5853 5853 5853 5853 5853 5851 5850 5852 5852 5844 5844 5843 5846 5849 5850 5850 5850 5850 5850 5848 5847 5846 5846 5847 5848 5848 5847 5846 5844 5842 5841 5839 5837 5837 5836 5835 5833 5833 5832 5831 5830 5830 5829 5827 5826 5826 5826
5851 5854 5853 5851 5848 5847 5847 5849 5846 5849 5846 5839 5838 5840 5842 5843 5844 5844 5844 5843 5842 5840 5838 5839 5838 5838 5839 5839 5838 5837 5836 5834 5832 5832 5830 5828 5827 5826 5825 5823 5820 5823 5820 5821 5819 5816 5815 5816 5816
5847 5847 5847 5846 5844 5842 5839 5844 5844 5841 5839 5834 5835 5836 5839 5840 5840 5839 5837 5836 5835 5834 5834 5833 5833 5833 5831 5831 5831 5829 5827 5826 5825 5824 5822 5821 5820 5819 5816 5814 5813 5813 5812 5812 5811 5809 5808 5807 5807
5844 5843 5841 5841 5841 5838 5835 5836 5837 5835 5833 5830 5831 5833 5832 5833 5833 5832 5831 5830 5828 5829 5828 5826 5824 5824 5823 5822 5819 5819 5819 5817 5815 5814 5813 5811 5809 5807 5805 5803 5801 5798 5797 5797 5798 5797 5796 5795 5794
5837 5836 5837 5835 5834 5835 5830 5830 5828 5830 5827 5824 5824 5825 5826 5826 5829 5828 5825 5824 5825 5823 5820 5818 5817 5815 5814 5812 5810 5808 5806 5805 5804 5802 5801 5800 5798 5797 5795 5792 5790 5789 5787 5785 5784 5784 5783 5780 5780
5831 5832 5833 5831 5830 5827 5827 5824 5823 5819 5818 5816 5818 5819 5819 5821 5821 5823 5822 5820 5818 5815 5812 5811 5810 5809 5806 5803 5800 5798 5796 5794 5792 5791 5789 5786 5784 5782 5781 5780 5777 5774 5771 5769 5767 5768 5769 5770 5769
5829 5824 5826 5825 5822 5818 5819 5822 5820 5818 5812 5809 5807 5812 5812 5814 5816 5817 5816 5813 5811 5809 5806 5804 5800 5797 5795 5793 5791 5789 5787 5785 5782 5779 5776 5773 5771 5768 5765 5763 5761 5758 5757 5754 5751 5748 5747 5749 5752
5824 5821 5819 5819 5816 5811 5812 5815 5815 5812 5810 5807 5802 5803 5806 5806 5807 5807 5807 5805 5803 5802 5799 5796 5793 5791 5788 5786 5784 5780 5777 5774 5770 5767 5764 5761 5758 5754 5751 5747 5745 5742 5740 5737 5735 5732 5731 5730 5729
5817 5813 5813 5811 5812 5810 5805 5803 5809 5804 5802 5799 5796 5797 5797 5797 5798 5798 5796 5795 5795 5794 5792 5787 5781 5778 5776 5773 5772 5770 5765 5762 5759 5755 5751 5747 5743 5740 5735 5732 5728 5725 5720 5719 5715 5711 5709 5710 5713
5812 5807 5804 5804 5802 5803 5802 5791 5799 5795 5791 5792 5792 5792 5791 5788 5787 5786 5786 5787 5785 5784 5780 5774 5771 5767 5764 5761 5758 5753 5752 5749 5745 5740 5734 5729 5724 5719 5714 5711 5707 5703 5699 5696 5693 5691 5691 5689 5694
5804 5802 5798 5796 5795 5788 5799 5783 5780 5788 5785 5785 5784 5784 5783 5782 5781 5778 5776 5774 5773 5771 5766 5761 5758 5756 5751 5746 5742 5739 5733 5728 5724 5718 5714 5709 5704 5698 5691 5684 5678 5672 5668 5665 5662 5659 5658 5658 5662
5796 5793 5790 5788 5786 5784 5785 5780 5776 5778 5776 5775 5775 5775 5773 5773 5771 5769 5767 5764 5762 5758 5754 5749 5745 5741 5736 5731 5727 5721 5716 5711 5707 5701 5696 5690 5680 5672 5664 5656 5649 5645 5640 5637 5633 5628 5625 5623 5625
5790 5786 5781 5778 5777 5775 5773 5767 5770 5767 5768 5766 5764 5763 5763 5761 5760 5757 5755 5753 5750 5747 5742 5736 5729 5723 5719 5713 5707 5701 5696 5692 5686 5679 5671 5663 5655 5645 5636 5628 5620 5611 5604 5599 5592 5588 5585 5584 5584
5782 5779 5774 5765 5763 5763 5767 5759 5758 5757 5759 5757 5754 5753 5752 5750 5747 5745 5743 5739 5735 5732 5726 5718 5710 5706 5700 5696 5690 5684 5676 5668 5660 5654 5645 5637 5629 5620 5609 5598 5587 5575 5564 5557 5551 5548 5547 5548 5551
5774 5772 5768 5761 5757 5751 5747 5747 5748 5746 5746 5745 5744 5742 5740 5738 5736 5733 5730 5726 5722 5717 5710 5701 5697 5693 5686 5680 5672 5663 5654 5645 5637 5631 5623 5614 5603 5591 5582 5570 5558 5550 5544 5539 5534 5528 5521 5517 5520
5765 5762 5759 5754 5745 5739 5738 5736 5734 5733 5734 5733 5731 5730 5728 5724 5721 5717 5713 5710 5706 5701 5693 5686 5683 5675 5668 5659 5651 5643 5635 5627 5619 5611 5600 5590 5580 5569 5559 5552 5549 5543 5537 5530 5522 5514 5505 5500 5499
5754 5752 5749 5746 5741 5733 5724 5722 5728 5726 5723 5720 5718 5716 5714 5710 5707 5703 5700 5697 5692 5683 5676 5672 5662 5656 5648 5640 5633 5625 5618 5608 5598 5590 5582 5572 5562 5554 5550 5545 5541 5536 5529 5521 5513 5503 5493 5485 5487
5745 5744 5742 5739 5733 5725 5723 5706 5718 5714 5712 5708 5705 5702 5697 5695 5692 5689 5685 5680 5671 5666 5661 5652 5644 5636 5629 5623 5616 5610 5602 5591 5580 5572 5565 5558 5551 5547 5544 5540 5534 5528 5521 5514 5505 5496 5487 5480 5478